Monroe, MI

6:21 AM EDT on March 30, 2017 (GMT -0400)
Custer

Weather History for KTTF - August, 2012

Change the Weather History Date:

Sunday, August 5, 2012

  Actual Average Record
Temperature  
Mean Temperature 73 °F -  
Max Temperature 84 °F 84 °F 98 °F (1931)
Min Temperature 60 °F 62 °F 49 °F (1957)
Cooling Degree Days 8    
Growing Degree Days 23 (Base 50)    
Moisture  
Dew Point 60 °F    
Average Humidity 72    
Maximum Humidity 100    
Minimum Humidity 30    
Precipitation  
Precipitation 0.00 in - - ()
Sea Level Pressure  
Sea Level Pressure 29.95 in    
Wind  
Wind Speed 8 mph (West)    
Max Wind Speed 20 mph    
Max Gust Speed 25 mph    
Visibility 9 miles    
Events Rain    
Averages and records for this station are not official NWS values.
T = Trace of Precipitation, MM = Missing Value Source: NWS Daily Summary

Daily Weather History Graph

Daily Weather History Graph

Search for Another Location

Airport or City:

Trip Planner

Search our weather history database for the weather conditions in past years. The results will help you decide how hot, cold, wet, or windy it might be!

Date:

Astronomy

Aug. 05, 2012 Rise Set
Actual Time 6:31 AM EDT 8:46 PM EDT
Civil Twilight 6:00 AM EDT 9:17 PM EDT
Nautical Twilight 5:22 AM EDT 9:55 PM EDT
Astronomical Twilight 4:40 AM EDT 10:37 PM EDT
Moon 10:19 PM EDT (8/5) 10:24 AM EDT (8/5)
Length of Visible Light 15h 16m
Length of Day
14h 14m
Waning Gibbous, 86% of the Moon is Illuminated
Aug 5
Waning Gibbous
Aug 9
Last Quarter
Aug 17
New
Aug 24
First Quarter
Aug 31
Full

Hourly Weather History & Observations

Time (EDT) Temp. Heat Index Dew Point Humidity Pressure Visibility Wind Dir Wind Speed Gust Speed Precip Events Conditions
12:12 AM 68.0 °F - 68.0 °F 100% 29.86 in 10.0 mi SSW 5.8 mph - N/A   Scattered Clouds
12:32 AM 68.0 °F - 68.0 °F 100% 29.85 in 10.0 mi SSW 5.8 mph - N/A   Clear
12:52 AM 66.2 °F - 66.2 °F 100% 29.87 in 10.0 mi South 8.1 mph - N/A   Clear
1:13 AM 66.2 °F - 66.2 °F 100% 29.88 in 10.0 mi SSW 6.9 mph - N/A   Mostly Cloudy
1:33 AM 66.2 °F - 66.2 °F 100% 29.89 in 10.0 mi SSW 10.4 mph - N/A   Mostly Cloudy
1:53 AM 66.2 °F - 66.2 °F 100% 29.88 in 10.0 mi SSW 10.4 mph 17.3 mph N/A   Scattered Clouds
2:13 AM 66.2 °F - 66.2 °F 100% 29.89 in 10.0 mi SSW 6.9 mph - N/A   Clear
2:33 AM 66.2 °F - 66.2 °F 100% 29.89 in 10.0 mi SW 6.9 mph - N/A   Clear
2:53 AM 66.2 °F - 66.2 °F 100% 29.90 in 10.0 mi SW 6.9 mph - N/A   Clear
3:13 AM 66.2 °F - 66.2 °F 100% 29.90 in 10.0 mi WSW 5.8 mph - N/A   Scattered Clouds
3:33 AM 66.2 °F - 66.2 °F 100% 29.89 in 10.0 mi WSW 5.8 mph - N/A   Mostly Cloudy
3:53 AM 66.2 °F - 66.2 °F 100% 29.88 in 10.0 mi West 5.8 mph - N/A   Scattered Clouds
4:14 AM 66.2 °F - 66.2 °F 100% 29.88 in 10.0 mi Calm Calm - N/A   Scattered Clouds
4:34 AM 66.2 °F - 66.2 °F 100% 29.87 in 7.0 mi Calm Calm - N/A   Scattered Clouds
4:54 AM 66.2 °F - 66.2 °F 100% 29.88 in 7.0 mi Calm Calm - N/A   Scattered Clouds
5:14 AM 66.2 °F - 66.2 °F 100% 29.88 in 7.0 mi Calm Calm - N/A   Scattered Clouds
5:34 AM 66.2 °F - 66.2 °F 100% 29.88 in 7.0 mi Calm Calm - N/A   Clear
5:54 AM 66.2 °F - 66.2 °F 100% 29.90 in 10.0 mi WSW 4.6 mph - N/A   Clear
6:14 AM 66.2 °F - 66.2 °F 100% 29.90 in 10.0 mi WSW 5.8 mph - N/A   Clear
6:34 AM 66.2 °F - 66.2 °F 100% 29.90 in 10.0 mi SW 4.6 mph - N/A   Clear
6:54 AM 66.2 °F - 66.2 °F 100% 29.90 in 10.0 mi SW 3.5 mph - N/A   Clear
7:15 AM 68.0 °F - 68.0 °F 100% 29.89 in 10.0 mi SW 5.8 mph - N/A   Scattered Clouds
7:35 AM 69.8 °F - 69.8 °F 100% 29.89 in 10.0 mi SSW 6.9 mph - N/A   Clear
7:55 AM 69.8 °F - 69.8 °F 100% 29.90 in 10.0 mi WSW 6.9 mph - N/A   Clear
8:15 AM 69.8 °F - 69.8 °F 100% 29.92 in 10.0 mi WSW 9.2 mph - N/A Rain Light Rain
8:35 AM 69.8 °F - 69.8 °F 100% 29.93 in 10.0 mi West 10.4 mph - N/A   Overcast
8:55 AM 68.0 °F - 68.0 °F 100% 29.93 in 7.0 mi WSW 9.2 mph - N/A Rain Light Rain
9:10 AM 68.0 °F - 68.0 °F 100% 29.93 in 4.0 mi WSW 6.9 mph - N/A Rain Rain
9:30 AM 68.0 °F - 68.0 °F 100% 29.95 in 4.0 mi SW 8.1 mph - N/A Rain Light Rain
9:50 AM 66.2 °F - 66.2 °F 100% 29.94 in 2.0 mi SSW 6.9 mph - N/A Rain Rain
10:11 AM 68.0 °F - 68.0 °F 100% 29.93 in 5.0 mi SSW 5.8 mph - N/A Rain Light Rain
10:31 AM 69.8 °F - 69.8 °F 100% 29.93 in 5.0 mi WSW 6.9 mph - N/A   Scattered Clouds
10:51 AM 69.8 °F - 69.8 °F 100% 29.93 in 5.0 mi West 8.1 mph - N/A Rain Light Rain
11:11 AM 73.4 °F - 73.4 °F 100% 29.93 in 10.0 mi West 11.5 mph 16.1 mph N/A   Clear
11:31 AM 73.4 °F - 71.6 °F 94% 29.94 in 10.0 mi West 10.4 mph - N/A   Mostly Cloudy
11:51 AM 73.4 °F - 71.6 °F 94% 29.94 in 10.0 mi West 10.4 mph - N/A   Overcast
12:11 PM 73.4 °F - 69.8 °F 88% 29.94 in 10.0 mi West 11.5 mph - N/A   Overcast
12:31 PM 77.0 °F - 68.0 °F 74% 29.94 in 10.0 mi West 16.1 mph - N/A   Mostly Cloudy
12:51 PM 77.0 °F - 66.2 °F 69% 29.94 in 10.0 mi West 13.8 mph 19.6 mph N/A   Mostly Cloudy
1:12 PM 78.8 °F - 66.2 °F 65% 29.94 in 10.0 mi West 13.8 mph 20.7 mph N/A   Mostly Cloudy
1:32 PM 80.6 °F 81.8 °F 62.6 °F 54% 29.94 in 10.0 mi West 15.0 mph 25.3 mph N/A   Scattered Clouds
1:52 PM 80.6 °F 81.5 °F 60.8 °F 51% 29.94 in 10.0 mi West 13.8 mph 21.9 mph N/A   Mostly Cloudy
2:12 PM 82.4 °F 82.0 °F 57.2 °F 42% 29.94 in 10.0 mi West 16.1 mph 20.7 mph N/A   Overcast
2:32 PM 82.4 °F 81.4 °F 53.6 °F 37% 29.95 in 10.0 mi WNW 12.7 mph 19.6 mph N/A   Scattered Clouds
2:52 PM 82.4 °F - 51.8 °F 35% 29.95 in 10.0 mi West 17.3 mph 24.2 mph N/A   Scattered Clouds
3:12 PM 82.4 °F - 51.8 °F 35% 29.95 in 10.0 mi West 11.5 mph - N/A   Clear
3:32 PM 82.4 °F - 51.8 °F 35% 29.96 in 10.0 mi WNW 19.6 mph 23.0 mph N/A   Clear
3:53 PM 82.4 °F - 51.8 °F 35% 29.96 in 10.0 mi WNW 12.7 mph - N/A   Scattered Clouds
4:13 PM 84.2 °F - 51.8 °F 33% 29.95 in 10.0 mi West 12.7 mph 18.4 mph N/A   Scattered Clouds
4:33 PM 82.4 °F - 51.8 °F 35% 29.95 in 10.0 mi NW 10.4 mph 16.1 mph N/A   Mostly Cloudy
4:53 PM 82.4 °F - 51.8 °F 35% 29.95 in 10.0 mi WNW 13.8 mph - N/A   Scattered Clouds
5:13 PM 84.2 °F - 50.0 °F 30% 29.95 in 10.0 mi West 12.7 mph - N/A   Scattered Clouds
5:33 PM 82.4 °F - 48.2 °F 30% 29.96 in 10.0 mi WNW 16.1 mph - N/A   Scattered Clouds
5:53 PM 82.4 °F - 48.2 °F 30% 29.96 in 10.0 mi West 13.8 mph 21.9 mph N/A   Clear
6:13 PM 82.4 °F - 48.2 °F 30% 29.97 in 10.0 mi WNW 12.7 mph 18.4 mph N/A   Clear
6:33 PM 80.6 °F - 46.4 °F 30% 29.97 in 10.0 mi WNW 10.4 mph 18.4 mph N/A   Clear
6:54 PM 80.6 °F - 46.4 °F 30% 29.97 in 10.0 mi WNW 9.2 mph 18.4 mph N/A   Clear
7:14 PM 80.6 °F - 46.4 °F 30% 29.98 in 10.0 mi WNW 8.1 mph 11.5 mph N/A   Clear
7:34 PM 78.8 °F - 46.4 °F 32% 29.99 in 10.0 mi NW 8.1 mph - N/A   Clear
7:54 PM 77.0 °F - 44.6 °F 32% 29.99 in 10.0 mi NW 11.5 mph - N/A   Clear
8:14 PM 75.2 °F - 44.6 °F 34% 30.01 in 10.0 mi WNW 9.2 mph - N/A   Clear
8:34 PM 73.4 °F - 44.6 °F 36% 30.02 in 10.0 mi NW 8.1 mph - N/A   Clear
8:54 PM 69.8 °F - 46.4 °F 43% 30.03 in 10.0 mi WNW 4.6 mph - N/A   Clear
9:14 PM 69.8 °F - 46.4 °F 43% 30.04 in 10.0 mi NW 6.9 mph - N/A   Clear
9:34 PM 69.8 °F - 46.4 °F 43% 30.05 in 10.0 mi NW 6.9 mph - N/A   Clear
9:55 PM 68.0 °F - 46.4 °F 46% 30.07 in 10.0 mi WNW 8.1 mph - N/A   Clear
10:15 PM 66.2 °F - 48.2 °F 52% 30.08 in 10.0 mi WNW 5.8 mph - N/A   Clear
10:35 PM 64.4 °F - 48.2 °F 56% 30.09 in 10.0 mi WNW 6.9 mph - N/A   Clear
10:55 PM 64.4 °F - 48.2 °F 56% 30.10 in 10.0 mi NNW 3.5 mph - N/A   Clear
11:15 PM 62.6 °F - 48.2 °F 59% 30.10 in 10.0 mi Calm Calm - N/A   Clear
11:30 PM 62.6 °F - 48.2 °F 59% 30.11 in 10.0 mi NW 3.5 mph - N/A   Clear
11:50 PM 60.8 °F - 50.0 °F 68% 30.11 in 10.0 mi NW 3.5 mph - N/A   Clear